Tracking 30166 objects as of 22-Jan-2025
HD Live streaming from Space Station
objects crossing your sky now

COSMOS 198

Track COSMOS 198 now!
10-day predictions
COSMOS 198 is classified as:


NORAD ID: 3081
Int'l Code: 1967-127A
Perigee: 893.1 km
Apogee: 955.0 km
Inclination: 65.1 °
Period: 103.3 minutes
Semi major axis: 7295 km
RCS: 2.5177 m2 (large)
Launch date: December 27, 1967
Source: Commonwealth of Independent States (former USSR) (CIS)
Launch site: TYURATAM MISSILE AND SPACE COMPLEX (TTMTR)
Your satellite tracking list
Your tracking list is empty




NASA's NSSDC Master Catalog

Two Line Element Set (TLE):
1 03081U 67127A   25021.91516720  .00000001  00000-0  69058-4 0  9999
2 03081  65.1416 179.4622 0042471 266.6670  92.9537 13.93346704902342
Source of the keplerian elements: AFSPC